Location: D�rnast
(49.6426°N, 11.9755°E)
Time: 02:58:26
(UTC+00:00)

BlueWalker 3 - Pass Details

Date: 30 November 2022
Orbit: 499 x 517 km, 53.2° (Epoch: 26 January)

Event Time Altitude Azimuth Distance (km) Brightness Sun altitude
Rises 18:05:01 0° 282° (WNW) 2,629 6.8 -26.6°
Reaches altitude 10° 18:07:17 10° 288° (WNW) 1,738 5.5 -27.0°
Enters shadow 18:09:34 30° 306° (NW) 929 3.6 -27.4°
